Precipitable_Water
1.23 1.19 1.14 1.12 1.12 1.14 1.16 1.18 1.23 1.24 1.27 1.32 1.33 1.37 1.40 1.42 1.43 1.42 1.41 1.40 1.37 1.34 1.31 1.28 1.28 1.28 1.26 1.25 1.27 1.29 1.26 1.20 1.14 1.10 1.05 1.00 0.95 0.91 0.87 0.84 0.79 0.73
1.20 1.18 1.18 1.17 1.16 1.18 1.20 1.24 1.26 1.27 1.28 1.32 1.37 1.41 1.44 1.44 1.44 1.43 1.39 1.37 1.35 1.32 1.29 1.27 1.27 1.26 1.25 1.25 1.28 1.26 1.19 1.12 1.06 1.06 1.00 0.94 0.90 0.87 0.82 0.77 0.71 0.67
1.20 1.17 1.16 1.14 1.13 1.16 1.21 1.28 1.31 1.33 1.32 1.35 1.40 1.43 1.43 1.44 1.42 1.40 1.38 1.36 1.32 1.28 1.26 1.26 1.26 1.26 1.26 1.26 1.25 1.19 1.10 1.04 1.01 1.00 0.94 0.89 0.86 0.81 0.76 0.71 0.65 0.60
1.18 1.17 1.17 1.17 1.18 1.19 1.25 1.27 1.30 1.33 1.36 1.36 1.39 1.43 1.43 1.41 1.39 1.36 1.34 1.33 1.30 1.25 1.25 1.27 1.25 1.25 1.26 1.24 1.15 1.04 1.02 1.01 0.97 0.95 0.88 0.85 0.81 0.75 0.70 0.65 0.60 0.55
1.17 1.17 1.20 1.20 1.21 1.23 1.26 1.27 1.28 1.31 1.32 1.35 1.39 1.42 1.43 1.41 1.38 1.34 1.32 1.30 1.27 1.24 1.26 1.27 1.25 1.24 1.23 1.15 1.06 0.99 0.98 0.96 0.94 0.88 0.82 0.78 0.74 0.69 0.64 0.60 0.53 0.49
1.20 1.20 1.21 1.21 1.20 1.22 1.24 1.26 1.28 1.28 1.31 1.33 1.35 1.38 1.40 1.39 1.36 1.32 1.31 1.27 1.25 1.25 1.27 1.27 1.24 1.22 1.20 1.09 0.98 0.94 0.93 0.91 0.87 0.82 0.77 0.71 0.68 0.65 0.61 0.55 0.50 0.46
1.15 1.17 1.18 1.22 1.21 1.22 1.23 1.25 1.26 1.27 1.30 1.36 1.39 1.43 1.43 1.39 1.36 1.33 1.31 1.27 1.26 1.27 1.27 1.26 1.23 1.19 1.16 1.08 0.96 0.91 0.88 0.85 0.81 0.77 0.72 0.69 0.66 0.61 0.57 0.52 0.47 0.43
1.17 1.20 1.24 1.24 1.20 1.19 1.20 1.22 1.23 1.25 1.28 1.32 1.33 1.38 1.40 1.39 1.36 1.37 1.36 1.32 1.29 1.27 1.25 1.24 1.22 1.16 1.12 1.06 0.97 0.92 0.84 0.80 0.75 0.72 0.70 0.68 0.64 0.57 0.53 0.50 0.46 0.42
1.22 1.22 1.26 1.24 1.19 1.17 1.17 1.19 1.23 1.25 1.29 1.31 1.33 1.37 1.42 1.40 1.38 1.39 1.35 1.32 1.29 1.26 1.24 1.21 1.19 1.14 1.11 1.06 1.00 0.91 0.80 0.75 0.71 0.69 0.69 0.66 0.60 0.54 0.50 0.49 0.45 0.43
1.21 1.23 1.25 1.23 1.16 1.15 1.15 1.19 1.23 1.24 1.29 1.32 1.33 1.41 1.38 1.47 1.41 1.36 1.33 1.30 1.27 1.24 1.22 1.19 1.16 1.13 1.10 1.06 0.98 0.88 0.78 0.70 0.68 0.69 0.70 0.65 0.58 0.53 0.51 0.48 0.46 0.44
1.20 1.21 1.21 1.18 1.15 1.14 1.15 1.20 1.22 1.25 1.29 1.31 1.36 1.39 1.40 1.36 1.35 1.35 1.32 1.28 1.24 1.21 1.19 1.17 1.15 1.12 1.06 1.00 0.95 0.86 0.75 0.68 0.68 0.71 0.70 0.64 0.58 0.54 0.52 0.49 0.47 0.45
1.18 1.19 1.18 1.16 1.14 1.14 1.16 1.19 1.22 1.25 1.28 1.32 1.34 1.36 1.34 1.33 1.34 1.32 1.28 1.25 1.22 1.20 1.18 1.16 1.12 1.06 1.01 0.97 0.90 0.79 0.72 0.71 0.72 0.72 0.69 0.64 0.59 0.56 0.53 0.51 0.48 0.46
1.15 1.17 1.17 1.15 1.14 1.15 1.18 1.19 1.22 1.26 1.27 1.30 1.36 1.34 1.34 1.33 1.34 1.30 1.27 1.23 1.21 1.19 1.17 1.14 1.06 1.01 0.97 0.89 0.79 0.74 0.72 0.72 0.72 0.71 0.67 0.64 0.60 0.56 0.54 0.52 0.50 0.48
1.15 1.19 1.18 1.16 1.16 1.18 1.18 1.21 1.25 1.27 1.31 1.33 1.37 1.35 1.34 1.34 1.31 1.26 1.24 1.21 1.19 1.18 1.16 1.09 1.02 0.96 0.88 0.80 0.77 0.75 0.74 0.73 0.71 0.69 0.66 0.62 0.59 0.56 0.55 0.53 0.51 0.49
1.17 1.19 1.19 1.16 1.16 1.19 1.20 1.22 1.24 1.27 1.29 1.31 1.37 1.38 1.36 1.34 1.29 1.25 1.21 1.18 1.18 1.16 1.10 1.03 0.97 0.88 0.83 0.78 0.75 0.75 0.75 0.73 0.71 0.68 0.64 0.60 0.58 0.56 0.54 0.53 0.50 0.49
1.19 1.18 1.16 1.16 1.17 1.18 1.21 1.23 1.23 1.24 1.25 1.28 1.32 1.35 1.33 1.28 1.25 1.21 1.19 1.17 1.16 1.13 1.05 0.98 0.91 0.86 0.82 0.78 0.75 0.73 0.73 0.72 0.71 0.67 0.64 0.60 0.56 0.53 0.52 0.52 0.51 0.50
1.18 1.16 1.15 1.14 1.17 1.21 1.23 1.21 1.21 1.24 1.26 1.27 1.28 1.27 1.25 1.22 1.20 1.16 1.15 1.15 1.15 1.10 1.01 0.95 0.89 0.85 0.81 0.78 0.75 0.74 0.74 0.73 0.69 0.66 0.63 0.59 0.55 0.52 0.50 0.50 0.51 0.52
1.16 1.14 1.13 1.12 1.15 1.19 1.22 1.22 1.22 1.23 1.24 1.24 1.25 1.23 1.21 1.19 1.16 1.14 1.13 1.14 1.14 1.08 1.00 0.94 0.88 0.84 0.80 0.77 0.75 0.74 0.74 0.73 0.70 0.66 0.62 0.58 0.55 0.53 0.52 0.52 0.52 0.53
1.15 1.12 1.11 1.10 1.14 1.21 1.23 1.22 1.21 1.21 1.21 1.21 1.21 1.22 1.20 1.15 1.13 1.11 1.11 1.12 1.11 1.05 0.98 0.93 0.87 0.83 0.80 0.77 0.74 0.73 0.73 0.71 0.68 0.64 0.60 0.56 0.54 0.54 0.54 0.54 0.54 0.55
1.13 1.13 1.10 1.11 1.16 1.21 1.24 1.23 1.21 1.20 1.22 1.24 1.22 1.19 1.16 1.14 1.10 1.09 1.09 1.10 1.09 1.04 0.97 0.92 0.86 0.83 0.80 0.77 0.74 0.72 0.72 0.70 0.67 0.63 0.60 0.58 0.56 0.56 0.57 0.56 0.56 0.56
1.12 1.11 1.11 1.11 1.15 1.20 1.21 1.18 1.18 1.20 1.20 1.20 1.18 1.16 1.14 1.11 1.07 1.06 1.07 1.08 1.07 1.02 0.94 0.89 0.85 0.83 0.80 0.76 0.73 0.72 0.72 0.71 0.68 0.66 0.63 0.61 0.61 0.61 0.61 0.60 0.60 0.60
1.09 1.08 1.09 1.10 1.14 1.18 1.18 1.15 1.15 1.17 1.17 1.19 1.18 1.16 1.16 1.13 1.09 1.08 1.06 1.06 1.05 0.98 0.92 0.87 0.85 0.82 0.80 0.77 0.75 0.73 0.73 0.72 0.70 0.67 0.65 0.65 0.65 0.64 0.64 0.65 0.64 0.63
1.07 1.06 1.06 1.08 1.14 1.16 1.14 1.14 1.14 1.16 1.18 1.20 1.17 1.14 1.12 1.09 1.07 1.06 1.07 1.05 1.02 0.97 0.91 0.86 0.83 0.84 0.83 0.82 0.79 0.77 0.77 0.75 0.73 0.71 0.70 0.69 0.67 0.67 0.67 0.68 0.68 0.65
1.06 1.05 1.04 1.08 1.12 1.13 1.13 1.13 1.16 1.22 1.22 1.24 1.17 1.13 1.10 1.09 1.07 1.05 1.05 1.03 1.00 0.96 0.92 0.86 0.84 0.84 0.85 0.84 0.82 0.82 0.82 0.79 0.76 0.74 0.72 0.71 0.70 0.70 0.70 0.69 0.68 0.71
1.06 1.04 1.05 1.10 1.17 1.18 1.17 1.13 1.14 1.19 1.24 1.24 1.19 1.16 1.13 1.10 1.07 1.04 1.03 1.01 0.99 0.96 0.93 0.89 0.86 0.86 0.86 0.87 0.87 0.87 0.87 0.85 0.82 0.78 0.75 0.73 0.72 0.71 0.71 0.72 0.72 0.72
1.06 1.01 1.08 1.16 1.18 1.18 1.20 1.17 1.19 1.27 1.25 1.21 1.17 1.15 1.11 1.08 1.06 1.03 1.01 1.00 0.99 0.96 0.94 0.93 0.89 0.89 0.88 0.89 0.90 0.90 0.91 0.91 0.88 0.83 0.79 0.77 0.78 0.77 0.76 0.76 0.76 0.74
Wind_Speed
25 25 24 22 22 21 21 20 20 20 19 19 18 18 17 17 16 16 16 16 16 15 15 15 15 15 15 14 14 14 14 13 13 12 12 11 12 12 13 12 12 12
26 25 24 23 22 21 21 21 21 20 20 19 19 18 18 17 16 16 16 16 16 16 15 15 15 15 14 14 14 13 13 13 12 12 12 12 12 12 12 12 12 12
26 25 24 23 22 21 21 21 21 21 20 20 19 18 18 17 17 16 16 16 16 16 16 15 15 14 13 13 13 12 12 12 11 12 12 12 12 11 11 11 11 11
27 26 25 24 23 22 21 21 21 21 21 20 19 19 18 17 17 16 16 16 16 16 16 15 14 13 12 12 12 11 11 11 12 12 12 12 11 11 11 11 10 10
27 26 25 24 23 22 22 21 21 21 21 20 20 19 18 18 17 17 16 16 16 16 16 15 14 13 12 12 11 11 11 12 12 12 12 11 11 11 11 10 10 10
28 27 25 24 23 22 22 22 22 22 21 21 20 20 19 18 17 17 16 16 16 16 16 15 14 13 12 12 11 11 11 12 12 12 11 11 11 10 10 10 10 10
28 27 26 24 23 22 22 22 22 22 21 21 20 20 19 18 17 17 17 16 16 16 15 15 14 13 13 13 12 12 12 12 11 11 11 11 11 10 10 10 10 10
28 27 26 25 24 23 22 22 22 21 21 20 21 20 19 18 17 17 17 16 16 15 15 14 14 14 13 13 13 13 13 12 11 11 11 11 11 10 10 10 10 10
28 27 26 25 24 23 23 22 22 21 21 21 21 20 19 18 17 17 16 16 15 15 14 14 14 14 14 13 13 13 13 13 12 11 11 11 11 11 11 11 11 11
29 28 27 26 25 24 23 23 22 21 21 21 21 20 19 18 17 17 16 16 15 15 14 14 14 14 14 14 14 14 14 13 12 12 12 11 11 11 11 11 11 11
29 28 27 26 25 24 23 23 22 21 21 21 21 20 19 18 17 17 16 16 15 15 15 14 14 14 14 14 14 14 14 13 13 12 12 12 12 12 12 12 12 12
29 28 27 27 25 24 24 23 22 21 21 21 21 20 18 17 17 17 16 16 16 15 15 14 14 14 13 13 14 14 14 13 13 12 12 12 12 12 12 12 13 13
30 29 28 27 25 24 24 23 22 21 21 21 20 19 17 17 17 17 17 16 16 15 15 15 14 14 13 14 14 14 14 14 13 13 13 13 13 13 13 13 13 14
30 29 28 27 25 24 24 23 22 21 20 20 19 18 18 17 17 17 17 16 16 15 15 15 15 14 14 14 14 14 14 14 14 14 14 13 13 13 14 14 14 14
30 29 28 27 25 24 24 23 22 21 21 20 19 19 18 18 18 17 17 17 16 16 15 15 15 15 15 14 14 14 14 14 14 14 14 14 14 14 14 14 14 15
30 29 28 27 25 25 24 23 22 21 20 20 19 19 18 18 18 18 17 17 16 16 16 16 16 16 15 15 15 15 15 15 15 15 15 15 15 15 15 15 15 16
30 30 29 27 26 25 24 23 22 21 20 20 19 19 18 18 18 18 18 17 17 17 17 17 16 16 16 16 16 15 15 15 15 15 15 15 16 16 16 16 16 17
30 30 29 27 26 25 24 23 22 21 21 20 20 19 19 18 18 18 18 17 17 18 17 17 17 17 17 17 16 16 16 16 16 16 16 16 17 17 17 17 18 18
31 30 29 27 26 25 24 23 22 22 21 20 20 19 19 18 18 18 18 18 18 18 18 17 17 17 17 17 17 17 16 16 16 17 17 17 17 18 18 18 19 19
32 31 29 28 26 25 25 24 23 22 21 20 20 20 19 19 19 18 18 18 19 19 18 17 17 17 18 18 18 17 17 17 17 17 17 18 18 18 19 19 20 20
32 31 30 28 27 26 25 25 23 22 21 21 21 20 19 19 19 19 19 19 19 19 18 18 17 17 18 18 18 18 17 17 17 18 18 19 19 19 20 20 20 20
32 31 30 28 27 26 25 25 24 23 21 21 21 20 19 19 20 20 19 19 19 19 19 18 17 17 17 17 17 17 17 17 18 18 19 19 20 20 20 21 21 21
32 31 30 28 27 27 26 25 25 23 22 22 21 20 19 20 20 20 20 20 19 19 19 18 17 17 17 17 17 17 18 18 18 19 19 20 20 20 21 21 22 22
32 31 30 29 28 28 26 25 25 24 23 22 21 20 20 20 21 21 20 20 20 19 19 18 18 17 17 17 17 18 18 19 19 19 20 20 21 21 21 22 23 23
31 30 30 30 29 28 27 26 26 25 23 22 21 20 20 20 21 21 20 20 20 20 19 19 18 18 18 18 18 18 19 19 20 20 20 21 21 21 22 23 23 24
31 30 30 30 29 28 26 26 26 25 22 21 21 20 20 21 21 21 20 20 20 20 20 20 19 19 19 19 19 19 19 20 20 21 21 21 22 22 22 23 24 24
Wind_Direction
228 229 230 231 232 234 235 234 235 235 237 238 240 243 245 248 249 251 254 255 257 260 262 266 268 270 271 270 268 264 260 256 251 244 239 241 247 251 253 256 258 258
228 229 230 230 232 234 234 234 235 236 238 239 241 243 245 247 249 252 254 256 258 261 264 267 269 269 269 267 264 260 255 251 244 238 236 242 250 252 253 255 255 256
228 229 229 230 232 233 234 234 236 237 238 240 241 243 245 247 249 252 254 257 259 262 265 267 268 267 265 262 260 257 252 245 237 235 238 245 251 251 252 253 253 254
228 228 229 230 232 233 233 234 235 237 238 239 241 243 245 246 248 251 254 257 259 262 265 265 264 262 258 255 255 253 248 241 235 235 240 246 249 249 249 250 251 254
228 228 228 230 231 232 233 233 234 235 237 238 240 243 245 246 247 250 253 257 259 262 264 261 258 255 251 248 249 248 244 239 235 236 239 242 244 245 246 247 250 255
227 227 228 229 230 231 232 232 233 235 236 238 239 242 244 245 247 250 253 256 258 260 260 256 252 249 246 245 245 245 243 239 236 235 236 237 239 241 244 248 251 256
227 226 226 228 229 230 231 232 233 234 236 238 239 240 242 244 246 250 253 255 257 258 256 251 248 245 242 242 244 244 240 237 235 234 234 235 236 240 245 250 254 258
226 226 226 226 228 229 230 232 233 234 235 237 239 240 242 243 245 248 251 254 255 254 251 248 245 242 240 241 242 240 236 234 234 232 232 234 237 242 247 252 256 260
225 225 225 225 227 228 230 231 232 234 235 238 239 240 240 242 244 247 250 252 252 248 246 246 243 239 238 239 238 235 232 232 234 233 233 237 242 246 250 254 258 262
223 224 224 225 226 228 229 229 231 234 236 238 240 240 239 241 244 247 249 250 248 244 243 244 242 238 235 234 233 232 230 230 233 234 238 242 246 249 252 255 259 264
222 223 223 224 226 227 227 228 231 234 237 238 239 238 238 241 244 246 247 247 244 241 241 242 241 237 232 229 229 230 230 231 234 237 242 246 249 250 253 257 261 266
221 222 223 224 226 226 226 228 231 234 237 238 238 237 237 241 243 243 244 243 241 240 240 240 237 233 228 226 227 229 230 233 236 240 245 248 250 252 254 258 263 267
221 222 222 223 225 225 226 228 230 234 236 237 237 236 238 241 241 240 241 241 239 238 238 236 231 227 224 224 227 230 233 237 240 243 246 249 251 253 256 260 264 269
221 221 222 223 224 225 225 227 229 233 235 236 236 236 239 241 240 239 239 238 238 237 235 231 226 223 223 226 230 233 237 240 243 245 247 249 251 254 258 262 266 270
220 221 221 222 223 223 224 226 229 232 235 235 233 235 240 242 239 237 237 236 236 234 231 227 224 224 225 229 233 237 240 243 245 247 249 250 253 256 260 264 267 271
219 219 219 220 221 222 223 225 228 232 233 233 231 233 239 240 236 236 237 236 234 231 228 226 225 226 227 230 234 239 243 246 247 249 251 252 255 258 262 266 269 272
217 217 218 219 220 221 222 224 228 231 232 232 231 234 238 237 234 235 236 235 233 229 226 226 228 229 229 231 235 239 243 246 249 251 254 255 258 261 264 267 270 274
216 216 217 218 219 219 221 224 227 229 229 230 231 234 237 235 233 234 235 234 233 229 227 228 230 231 231 234 237 240 243 247 251 253 256 259 261 263 266 269 272 275
215 215 216 218 218 218 220 223 225 227 227 229 230 233 236 234 232 233 234 233 232 229 228 230 232 232 233 236 239 241 244 249 253 256 259 261 263 265 268 270 273 276
214 214 216 217 217 218 221 222 224 225 227 229 230 232 235 234 231 232 232 232 232 230 229 232 234 235 236 238 241 243 246 250 255 258 261 263 265 267 269 272 274 277
214 214 216 216 216 218 220 222 223 224 226 228 229 231 234 234 232 231 231 232 232 230 230 233 235 236 238 240 243 245 248 253 257 260 263 265 267 269 271 273 276 278
213 214 215 216 215 217 219 222 223 223 225 227 227 231 235 234 231 231 231 231 231 230 230 233 235 237 240 244 246 248 251 256 259 262 264 266 268 269 272 274 277 279
213 214 215 215 215 216 219 222 223 224 226 226 226 230 234 233 230 231 232 231 230 230 231 233 236 240 244 247 248 250 254 258 260 262 265 266 268 270 273 275 277 279
213 214 215 215 215 217 218 221 223 224 225 226 227 232 235 232 229 230 232 231 231 230 232 235 238 242 245 248 250 252 256 259 261 263 266 268 270 272 274 275 276 278
213 215 215 215 215 217 219 222 222 221 223 226 229 234 235 231 229 230 231 231 231 232 233 237 241 243 245 249 251 254 257 261 263 264 267 269 271 272 274 276 277 277
214 215 215 215 215 216 221 225 222 219 221 226 230 233 233 229 228 229 231 232 233 234 236 239 242 244 246 250 253 256 259 262 264 266 268 269 271 272 274 277 278 278